Regional Weather Roundup
Issued by NWS Albany, NY

Home | Current Version | Previous Version | Text Only | Print | Product List | Glossary On
Versions: 1 2 3 4 5 6 7 8 9 10 11 12 13 14 15 16 17 18 19 20 21 22 23 24 25 26 27 28
000
ASUS41 KALY 180510
RWRALY

NEW YORK STATE HOURLY WEATHER ROUNDUP
NATIONAL WEATHER SERVICE ALBANY NY
1200 AM EST MON DEC 18 2017

NOTE: "FAIR" INDICATES FEW OR NO CLOUDS BELOW 12,000 FEET WITH NO
SIGNIFICANT WEATHER AND/OR NO OBSTRUCTIONS TO VISIBILITY.

NYZ032-033-038>043-046>054-057>066-NYZ062>081-082-084-180600-
EAST


CITY           SKY/WX    TMP DP  RH WIND       PRES   REMARKS
ALBANY         CLOUDY    19   9  65 NE3       30.21F
GLENS FALLS    CLOUDY     6   3  87 CALM      30.21F
POUGHKEEPSIE   CLOUDY    27  16  63 N3        30.21F
NEWBURGH       CLOUDY    27  19  74 CALM      30.20F
MONTGOMERY     CLOUDY    26  17  68 CALM      30.19F
WHITE PLAINS   CLOUDY    30  18  60 NE3       30.18F
ISLIP          CLOUDY    32  22  66 E3        30.21F
NEW YORK CITY  CLOUDY    35  24  64 E7        30.20F WCI  29
CENTRAL PARK   CLOUDY    35  24  64 E8        30.22F WCI  29
$$

NYZ005>009-017-018-044>046-055-056-180600-
CENTRAL


CITY           SKY/WX    TMP DP  RH WIND       PRES   REMARKS
FULTON         CLOUDY    22  15  75 VRB6      30.10F WCI  14
SYRACUSE       FLURRIES  21  16  81 E7        30.11F WCI  12
ROME           CLOUDY    21  13  71 E8        30.15F WCI  11
ELMIRA         CLOUDY    26  22  84 CALM      30.09F
BINGHAMTON     CLOUDY    25  20  81 S5        30.05F WCI  19
MONTICELLO     CLOUDY    24  19  81 E5        30.14F WCI  18
$$

NYZ026>034-041>043-087-180600-
NORTH


CITY           SKY/WX    TMP DP  RH WIND       PRES   REMARKS
WATERTOWN      CLOUDY     9   4  80 E7        30.13F WCI  -2
FORT DRUM      NOT AVBL
OGDENSBURG     FAIR       7   4  86 CALM      30.18F
MASSENA        CLOUDY     6   3  87 CALM      30.22F
SARANAC LAKE   CLOUDY     5   2  87 CALM      30.06S
PLATTSBURGH    CLOUDY    12   6  77 W5        30.22S WCI   4
$$

NYZ001>004-010>016-019>021-085-180600-
WEST


CITY           SKY/WX    TMP DP  RH WIND       PRES   REMARKS
NIAGARA FALLS  CLOUDY    25  18  74 NE3       30.05F
BUFFALO        CLOUDY    25  20  81 NE3       30.04F
DUNKIRK        CLOUDY    36  31  82 SW12      30.05F WCI  28
JAMESTOWN      CLOUDY    33  30  88 SW12      30.03F WCI  24
WELLSVILLE     CLOUDY    36  28  73 SW9G17    30.02F WCI  29
ROCHESTER      FLURRIES  25  21  85 SE5       30.08F WCI  19
PENN YAN       CLOUDY    28  22  78 SW6       30.07S WCI  22
$$

             KEY
       WCI = WIND CHILL INDEX
       VSB = VISIBILITY
       HX  = HEAT INDEX
$$




USA.gov is the U.S. government's official web portal to all federal, state and local government web resources and services.